[[{"header":{"parameterUnit":"m.s-1","parameterCategory":1,"la1":30.2991,"la2":30.254,"lo1":-89.0895,"lo2":-89.0444,"dy":0.0017,"dx":0.0017,"nx":28,"ny":28,"refTime":"2024-08-09T21:00:00:Z","depth":0,"parameterNumber":2,"parameterNumberName":"U-component_of_WINDS"},"data":[0,0,0,0,0,0,0,0,0,0,0,0,0,0,0,0,0,0,0,0,0,0,0,0,0,0,0,0,0,0,0,0,0,0,0,0,0,0,0,0,0,0,0,0,0,0,0,0,0,0,0,0,0,0,0,0,0,0,0.4256,0.4256,0,0.4284,0.4285,0.4285,0.4351,0.4352,0.4354,0.4355,0.4382,0.4382,0.4381,0,0,0,0,0,0,0,0,0,0,0,0,0,0.4255,0.4255,0.4256,0.4256,0.4256,0.4284,0.4285,0.4285,0.4351,0.4352,0.4354,0.4356,0.4382,0.4382,0.4381,0,0,0,0,0,0,0,0,0,0,0,0,0,0.4267,0.4255,0.4256,0.4293,0.4296,0.4284,0.4285,0.4285,0.435,0.4353,0.4355,0.4357,0.4383,0.4382,0.4381,0.4335,0,0,0.4378,0.4378,0,0,0,0,0,0,0,0,0.4266,0.4267,0.4287,0.429,0.4294,0.4316,0.4295,0.4302,0.435,0.433,0.4355,0.4358,0.4358,0.436,0.4361,0.4336,0.4337,0.4378,0.4378,0.4377,0.4377,0,0,0,0,0,0,0,0.4265,0.4266,0.4267,0.4287,0.4291,0.4307,0.4311,0.4296,0.4332,0.4332,0.4337,0.4339,0.4361,0.4361,0.4362,0.4338,0.4378,0.4378,0.4377,0.4377,0.4276,0.4274,0,0,0,0,0,0,0.4259,0.4265,0.4266,0.4268,0.4285,0.4305,0.431,0.4307,0.4333,0.4338,0.4337,0.4342,0.4362,0.4363,0.4363,0.431,0.4377,0.4377,0.4376,0.4278,0.4276,0.4273,0,0,0,0,0,0,0.4259,0.4259,0.4265,0.4268,0.427,0.4303,0.43,0.4306,0.4307,0.4337,0.4343,0.4331,0.4363,0.4364,0.4341,0.4312,0.4376,0.4376,0.4281,0.4277,0.4274,0.4205,0,0,0,0,0,0,0.4259,0.4258,0.4242,0.4267,0.4269,0.4243,0.4298,0.4306,0.4306,0.4312,0.4333,0.4338,0.4365,0.4342,0.434,0.4312,0.4375,0.4284,0.4279,0.4275,0.421,0.42,0.4191,0,0,0,0,0,0.4258,0.4221,0.424,0.424,0.4249,0.4242,0.4243,0.4275,0.4303,0.4286,0.4305,0.4338,0.4316,0.4339,0.4338,0.4309,0.4285,0.428,0.4276,0.4214,0.4202,0.4191,0,0,0,0,0,0,0.419,0.4225,0.4247,0.4216,0.4226,0.4253,0.4233,0.4261,0.4262,0.4268,0.4307,0.4311,0.4283,0.4294,0.4319,0.4265,0.4306,0.43,0.4259,0.4248,0.4238,0.4237,0.4374,0,0,0,0,0,0.4172,0.4164,0.4194,0.4163,0.4167,0.4199,0.4197,0.4221,0.4232,0.4236,0.4253,0.4262,0.4257,0.4253,0.425,0.4212,0.4217,0.4191,0.4181,0.4173,0.4168,0.4149,0.4137,0.4257,0.4257,0.4257,0,0,0.4133,0.4151,0.4143,0.415,0.416,0.415,0.4202,0.4189,0.4182,0.4233,0.4214,0.4226,0.4239,0.4208,0.4195,0.4216,0.4136,0.4167,0.4161,0.416,0.4142,0.4131,0.4121,0.4254,0.4254,0.4255,0,0,0.4059,0.4071,0.4047,0.4056,0.4071,0.4093,0.4087,0.411,0.412,0.4101,0.414,0.4131,0.4122,0.4129,0.4131,0.4058,0.4088,0.4056,0.4006,0.3986,0.3977,0.3969,0.3943,0.3933,0.4051,0.405,0.405,0,0.4009,0.3996,0.4031,0.4016,0.4018,0.4065,0.4041,0.4047,0.406,0.406,0.4083,0.4072,0.4084,0.4055,0.4038,0.4038,0.4032,0.4054,0.3976,0.3968,0.3961,0.3936,0.3926,0.4046,0.4047,0.4047,0.4048,0,0.3934,0.3924,0.3903,0.3915,0.3914,0.3894,0.3926,0.3921,0.3944,0.3963,0.3942,0.3957,0.3958,0.3953,0.3976,0.3928,0.394,0.3969,0.401,0.3945,0.3922,0.3913,0.4041,0.4042,0.4043,0.4044,0,0,0.3818,0.3849,0.3841,0.3847,0.3866,0.3859,0.3841,0.3843,0.3837,0.3844,0.3829,0.382,0.3847,0.3849,0.3873,0.3856,0.3797,0.3887,0.3888,0.387,0.3744,0.3723,0.3711,0.3816,0.3815,0.3813,0.3743,0,0.3747,0.372,0.3751,0.3716,0.3707,0.3751,0.3735,0.3745,0.3761,0.3756,0.3774,0.3767,0.3802,0.3804,0.3789,0.3807,0.3772,0.3813,0.3803,0.3802,0.3799,0.37,0.3677,0.361,0.3735,0.3733,0.3732,0,0.3662,0.3666,0.363,0.3652,0.3649,0.3635,0.3638,0.3633,0.3644,0.3657,0.366,0.3688,0.3671,0.3711,0.3688,0.3715,0.3712,0.372,0.3719,0.3719,0.3763,0.3698,0.359,0.358,0.3719,0.372,0.3721,0,0.3581,0.3577,0.3555,0.3559,0.3583,0.3572,0.3581,0.3595,0.3594,0.3597,0.3596,0.3596,0.3597,0.3596,0.3624,0.365,0.3597,0.3639,0.3607,0.3606,0.3594,0.3595,0.3484,0.3592,0.3592,0.3592,0.3592,0,0.35,0.3477,0.3519,0.3506,0.348,0.3516,0.3489,0.3503,0.3515,0.3504,0.3542,0.3531,0.3568,0.3561,0.3582,0.356,0.3559,0.3569,0.3575,0.3566,0.3565,0.3565,0.3571,0.3589,0.359,0.359,0.3591,0,0.3406,0.3433,0.3413,0.3437,0.3443,0.3423,0.3444,0.3432,0.3451,0.3437,0.3436,0.3465,0.3458,0.3486,0.3483,0.3498,0.3464,0.3478,0.346,0.3465,0.3431,0.3434,0.3318,0.3304,0.3419,0.3418,0.3417,0,0.3352,0.3336,0.3359,0.3355,0.3362,0.3355,0.3354,0.3388,0.3385,0.3397,0.3383,0.338,0.3379,0.3366,0.3387,0.3385,0.3399,0.3358,0.3399,0.339,0.3399,0.34,0.3398,0.335,0.3348,0.3347,0.3346,0,0.3255,0.3269,0.3267,0.3269,0.3267,0.3271,0.3276,0.3271,0.3307,0.3302,0.3296,0.3295,0.3293,0.3289,0.3291,0.33,0.3329,0.3333,0.3326,0.3317,0.3308,0.3312,0.3438,0.3336,0.3337,0.3338,0.3338,0.3339,0.318,0.3167,0.3181,0.3177,0.3185,0.3189,0.3179,0.3197,0.3193,0.3194,0.3214,0.3204,0.3215,0.3222,0.3228,0.322,0.3239,0.3228,0.3225,0.3222,0.3216,0.3308,0.322,0.322,0.3221,0.3221,0.3221,0,0.3085,0.3096,0.3092,0.3099,0.3096,0.3123,0.3131,0.3126,0.3117,0.3125,0.3124,0.3116,0.3113,0.3132,0.3131,0.3121,0.3134,0.3119,0.3121,0.3122,0.3199,0.3206,0.3109,0.3109,0.3109,0.3109,0.3109,0.3109,0.3035,0.3015,0.303,0.3014,0.3025,0.3016,0.3018,0.3022,0.3029,0.3019,0.3016,0.3029,0.3042,0.3042,0.3039,0.3045,0.3043,0.3024,0.3034,0.3106,0.3117,0.3127,0.3134,0.3023,0.3023,0.2957,0.2957,0.2956]},{"header":{"parameterUnit":"m.s-1","parameterCategory":1,"la1":30.2991,"la2":30.254,"lo1":-89.0895,"lo2":-89.0444,"dy":0.0017,"dx":0.0017,"nx":28,"ny":28,"refTime":"2024-08-09T21:00:00:Z","depth":0,"parameterNumber":3,"parameterNumberName":"V-component_of_WINDS"},"data":[0,0,0,0,0,0,0,0,0,0,0,0,0,0,0,0,0,0,0,0,0,0,0,0,0,0,0,0,0,0,0,0,0,0,0,0,0,0,0,0,0,0,0,0,0,0,0,0,0,0,0,0,0,0,0,0,0,0,0.3765,0.3766,0,0.3817,0.3817,0.3818,0.3841,0.3841,0.3841,0.3841,0.3893,0.3894,0.3896,0,0,0,0,0,0,0,0,0,0,0,0,0,0.3685,0.3686,0.3765,0.3766,0.3767,0.3816,0.3817,0.3818,0.3841,0.3841,0.3841,0.3841,0.3892,0.3894,0.3896,0,0,0,0,0,0,0,0,0,0,0,0,0,0.3726,0.3687,0.3765,0.3784,0.3787,0.3816,0.3817,0.3818,0.3841,0.3841,0.3841,0.3841,0.3892,0.3894,0.3896,0.391,0,0,0.3902,0.3903,0,0,0,0,0,0,0,0,0.3724,0.3729,0.3781,0.3783,0.3786,0.3822,0.3808,0.3849,0.3841,0.3821,0.3841,0.3841,0.3869,0.3873,0.3883,0.3913,0.3915,0.3903,0.3904,0.3905,0.3905,0,0,0,0,0,0,0,0.3721,0.3727,0.3786,0.3782,0.3785,0.3789,0.3795,0.3816,0.3845,0.3822,0.3824,0.383,0.3871,0.3881,0.3884,0.3916,0.3903,0.3904,0.3906,0.3907,0.3956,0.3956,0,0,0,0,0,0,0.3715,0.3725,0.3784,0.3787,0.3754,0.3791,0.3797,0.3811,0.3845,0.385,0.383,0.3831,0.3877,0.3882,0.3886,0.3903,0.3905,0.3907,0.3908,0.3956,0.3956,0.3956,0,0,0,0,0,0,0.3714,0.372,0.3782,0.3756,0.3765,0.3792,0.3807,0.3812,0.3822,0.385,0.3855,0.3835,0.3878,0.3883,0.3903,0.3905,0.3908,0.391,0.3956,0.3956,0.3956,0.3938,0,0,0,0,0,0,0.3711,0.372,0.3726,0.3756,0.3766,0.3799,0.3807,0.3813,0.3826,0.3827,0.3857,0.3861,0.3878,0.39,0.3905,0.3908,0.3911,0.3956,0.3956,0.3956,0.3939,0.3938,0.3937,0,0,0,0,0,0.3708,0.372,0.3727,0.3734,0.3775,0.3799,0.3805,0.3824,0.3826,0.3832,0.3849,0.3861,0.3904,0.3902,0.3908,0.3912,0.3956,0.3956,0.3956,0.3939,0.3938,0.3937,0,0,0,0,0,0,0.3691,0.3725,0.3732,0.3754,0.3774,0.3803,0.3812,0.3822,0.3841,0.3842,0.3864,0.387,0.3888,0.3902,0.3899,0.3925,0.3931,0.3932,0.3916,0.3915,0.3914,0.391,0.3913,0,0,0,0,0,0.3689,0.3706,0.3735,0.3752,0.3761,0.3784,0.3796,0.3808,0.3829,0.3838,0.3857,0.3876,0.3894,0.3905,0.3923,0.3941,0.3946,0.3946,0.3945,0.3944,0.3945,0.3952,0.3951,0.3956,0.3956,0.3956,0,0,0.3687,0.3707,0.3717,0.3749,0.3765,0.3781,0.3791,0.3809,0.3821,0.384,0.386,0.3874,0.3897,0.3915,0.3924,0.3927,0.3944,0.3944,0.3943,0.3944,0.3952,0.3951,0.3951,0.3956,0.3956,0.3956,0,0,0.369,0.3708,0.3723,0.3738,0.3762,0.3777,0.3781,0.3808,0.3818,0.3838,0.3852,0.3865,0.3897,0.3911,0.3923,0.3927,0.3937,0.3933,0.3927,0.3934,0.3934,0.3933,0.3933,0.3933,0.3933,0.3933,0.3933,0,0.3684,0.371,0.3729,0.3745,0.3757,0.3774,0.3788,0.3802,0.3831,0.3838,0.3841,0.3878,0.3895,0.3915,0.3916,0.3925,0.3928,0.393,0.3932,0.3932,0.3932,0.3932,0.3932,0.3933,0.3933,0.3933,0.3933,0,0.37,0.3717,0.3725,0.3751,0.3765,0.3779,0.3799,0.381,0.382,0.3834,0.3853,0.3873,0.3894,0.39,0.3911,0.392,0.3921,0.3928,0.3934,0.3931,0.3931,0.3931,0.3931,0.3932,0.3932,0.3932,0,0,0.3696,0.373,0.3732,0.3743,0.3769,0.3782,0.3796,0.3817,0.3824,0.3843,0.3854,0.3878,0.3883,0.3896,0.3908,0.3914,0.3914,0.392,0.3921,0.3917,0.3923,0.3917,0.3917,0.392,0.392,0.3921,0.392,0,0.3702,0.3728,0.3744,0.3763,0.3778,0.3793,0.3804,0.3821,0.3833,0.3847,0.3861,0.3877,0.3884,0.3891,0.3898,0.3913,0.3915,0.3913,0.393,0.393,0.3923,0.3917,0.3912,0.3911,0.3921,0.3921,0.3921,0,0.3713,0.3729,0.375,0.3771,0.3778,0.3788,0.3806,0.3819,0.3837,0.3846,0.3858,0.387,0.3883,0.3887,0.3905,0.3903,0.3911,0.3918,0.3919,0.3921,0.3925,0.3918,0.3912,0.3911,0.3922,0.3922,0.3922,0,0.3705,0.3733,0.3748,0.3757,0.3783,0.3789,0.38,0.3818,0.3828,0.3843,0.3849,0.3866,0.3875,0.3887,0.3902,0.3904,0.3917,0.3923,0.3924,0.3923,0.3926,0.3925,0.3919,0.3932,0.3932,0.3932,0.3932,0,0.371,0.3722,0.3744,0.3754,0.3766,0.3783,0.3794,0.3807,0.3821,0.3832,0.3846,0.3855,0.3875,0.3887,0.3899,0.391,0.3914,0.3921,0.3923,0.3919,0.3918,0.3924,0.3924,0.3932,0.3932,0.3932,0.3932,0,0.3704,0.372,0.3737,0.3759,0.3765,0.3773,0.3791,0.38,0.3812,0.3825,0.3829,0.3848,0.3862,0.3878,0.3897,0.3905,0.3915,0.392,0.3909,0.391,0.3909,0.3908,0.3906,0.3906,0.3919,0.3919,0.3919,0,0.3706,0.3715,0.3737,0.3745,0.3755,0.3768,0.3777,0.3793,0.3802,0.3821,0.3827,0.3841,0.3854,0.3875,0.389,0.3904,0.3909,0.3907,0.3911,0.3905,0.3907,0.3906,0.3906,0.3906,0.3905,0.3905,0.3905,0,0.3707,0.3713,0.3726,0.3741,0.3752,0.3764,0.3778,0.3783,0.3801,0.3811,0.3824,0.3834,0.3852,0.3866,0.3881,0.3891,0.3901,0.3903,0.3904,0.3899,0.3892,0.3894,0.3904,0.3903,0.3904,0.3904,0.3904,0.3904,0.3704,0.3711,0.3727,0.374,0.3751,0.3762,0.377,0.3782,0.3794,0.381,0.3819,0.3831,0.3846,0.3867,0.3877,0.3886,0.389,0.3891,0.3891,0.3891,0.3889,0.389,0.3889,0.3889,0.3889,0.3889,0.389,0,0.3703,0.3713,0.3725,0.3742,0.3752,0.3759,0.3773,0.378,0.3791,0.3804,0.3815,0.3829,0.3842,0.3857,0.387,0.3874,0.3878,0.3877,0.3876,0.3878,0.3886,0.3883,0.3873,0.3873,0.3873,0.3873,0.3873,0.3873,0.3705,0.3716,0.3724,0.374,0.375,0.3762,0.3769,0.3779,0.3789,0.3804,0.3814,0.3823,0.3836,0.3849,0.386,0.3864,0.3868,0.3865,0.387,0.3876,0.3878,0.3879,0.3877,0.3865,0.3865,0.3861,0.3861,0.3861]}]]